Elmira, NY

10:01 AM EDT on October 18, 2019 (GMT -0400)
Elmira-Corning Regional

Weather History for KELM - May, 2019

Change the Weather History Date:

Monday, May 20, 2019

  Actual Average Record
Temperature  
Mean Temperature 67 °F -  
Max Temperature 81 °F 72 °F 91 °F (1934)
Min Temperature 54 °F 46 °F 30 °F (1973)
Cooling Degree Days 2    
Growing Degree Days 17 (Base 50)    
Moisture  
Dew Point 55 °F    
Average Humidity 63    
Maximum Humidity 87    
Minimum Humidity 39    
Precipitation  
Precipitation 0.04 in - - ()
Sea Level Pressure  
Sea Level Pressure 29.79 in    
Wind  
Wind Speed 11 mph (West)    
Max Wind Speed 23 mph    
Max Gust Speed 36 mph    
Visibility 10 miles    
Events Rain    
Averages and records for this station are not official NWS values.
T = Trace of Precipitation, MM = Missing Value Source: NWS Daily Summary

Daily Weather History Graph

Daily Weather History Graph

Search for Another Location

Airport or City:

Astronomy

May. 20, 2019 Rise Set
Actual Time 5:42 AM EDT 8:26 PM EDT
Civil Twilight 5:09 AM EDT 8:59 PM EDT
Nautical Twilight 4:28 AM EDT 9:40 PM EDT
Astronomical Twilight 3:41 AM EDT 10:27 PM EDT
Moon 10:26 PM EDT (5/20) 7:08 AM EDT (5/20)
Length of Visible Light 15h 49m
Length of Day
14h 44m
Waning Gibbous, 96% of the Moon is Illuminated
May 20
Waning Gibbous
May 26
Last Quarter
Jun 3
New
Jun 10
First Quarter
Jun 17
Full

Hourly Weather History & Observations

Time (EDT) Temp. Dew Point Humidity Pressure Visibility Wind Dir Wind Speed Gust Speed Precip Events Conditions
12:53 AM 72.0 °F 62.1 °F 71% 29.79 in 10.0 mi WSW 8.1 mph - 0.00 in   Overcast
1:53 AM 69.1 °F 62.1 °F 78% 29.81 in 10.0 mi West 10.4 mph - 0.00 in   Overcast
2:53 AM 66.0 °F 60.1 °F 81% 29.78 in 9.0 mi SSW 6.9 mph - 0.03 in Rain Light Rain
3:53 AM 64.9 °F 60.1 °F 84% 29.77 in 10.0 mi WSW 4.6 mph - 0.01 in Rain Light Rain
4:53 AM 66.0 °F 60.1 °F 81% 29.76 in 10.0 mi WSW 4.6 mph - 0.00 in   Overcast
5:53 AM 63.0 °F 59.0 °F 87% 29.77 in 10.0 mi WSW 5.8 mph - N/A   Partly Cloudy
6:53 AM 66.0 °F 60.1 °F 81% 29.78 in 10.0 mi WSW 4.6 mph - N/A   Scattered Clouds
7:53 AM 68.0 °F 61.0 °F 78% 29.76 in 10.0 mi SW 10.4 mph - N/A   Partly Cloudy
8:53 AM 71.1 °F 61.0 °F 70% 29.75 in 10.0 mi SW 11.5 mph - N/A   Partly Cloudy
9:53 AM 75.0 °F 59.0 °F 57% 29.75 in 10.0 mi WSW 19.6 mph 25.3 mph N/A   Scattered Clouds
10:53 AM 75.9 °F 55.9 °F 50% 29.73 in 10.0 mi WSW 18.4 mph 29.9 mph N/A   Scattered Clouds
11:53 AM 77.0 °F 55.0 °F 47% 29.73 in 10.0 mi West 16.1 mph 35.7 mph N/A   Scattered Clouds
12:53 PM 78.1 °F 55.0 °F 45% 29.72 in 10.0 mi WSW 17.3 mph 25.3 mph N/A   Partly Cloudy
1:53 PM 79.0 °F 55.0 °F 44% 29.72 in 10.0 mi WSW 17.3 mph 26.5 mph N/A   Mostly Cloudy
2:53 PM 79.0 °F 54.0 °F 42% 29.71 in 10.0 mi West 11.5 mph - N/A   Mostly Cloudy
3:53 PM 78.1 °F 51.1 °F 39% 29.70 in 10.0 mi West 23.0 mph 29.9 mph N/A   Mostly Cloudy
4:53 PM 73.0 °F 57.0 °F 57% 29.75 in 10.0 mi NW 9.2 mph - N/A   Partly Cloudy
5:53 PM 69.1 °F 52.0 °F 54% 29.79 in 10.0 mi NW 11.5 mph 19.6 mph N/A   Partly Cloudy
6:53 PM 66.0 °F 50.0 °F 56% 29.82 in 10.0 mi WNW 18.4 mph 24.2 mph N/A   Clear
7:53 PM 62.1 °F 46.9 °F 58% 29.86 in 10.0 mi West 13.8 mph 26.5 mph N/A   Mostly Cloudy
8:53 PM 59.0 °F 45.0 °F 60% 29.90 in 10.0 mi NW 15.0 mph 25.3 mph N/A   Overcast
9:53 PM 57.9 °F 44.1 °F 60% 29.93 in 10.0 mi WNW 10.4 mph - N/A   Overcast
10:53 PM 55.9 °F 42.1 °F 60% 29.95 in 10.0 mi WNW 13.8 mph 21.9 mph N/A   Overcast
11:53 PM 54.0 °F 41.0 °F 62% 29.95 in 10.0 mi WNW 11.5 mph 20.7 mph N/A   Overcast